Location: Liscomb Game Sanctuary
(45.1633°N, 62.5575°W)
Time: 02:01:32
(UTC-03:00)

Daily predictions for brighter satellites

Satellite Brightness Start Highest point End
(mag) Time Altitude Azimuth Time Altitude Azimuth Time Altitude Azimuth
Meteor 2-8 Rocket 4.5 00:06:20 47° SSE 00:08:01 65° E 00:14:08 10° NNE
Cosmos 1269 Rocket 4.0 00:08:20 58° SSE 00:09:10 68° ESE 00:14:27 10° NNE
SL-16 R/B 3.5 00:04:24 10° N 00:09:31 33° NE 00:12:19 21° E
Cosmos 389 Rocket 3.5 00:06:14 10° N 00:09:00 39° NE 00:09:00 39° NE
Cosmos 1697 Rocket 2.8 00:05:27 10° NNW 00:10:59 62° WSW 00:12:12 50° SSW
ATLAS CENTAUR R/B 3.5 00:11:19 10° N 00:13:49 17° NE 00:15:30 13° ENE
Cosmos 2239 Rocket 4.5 00:10:57 10° N 00:17:06 70° E 00:18:52 47° SSE
CZ-4B R/B 4.3 00:12:54 10° N 00:17:40 46° WNW 00:19:54 28° WSW
Cosmos 1271 Rocket 3.0 00:14:06 10° NNW 00:17:42 59° W 00:17:42 59° W
Cosmos-2242 4.0 00:15:25 10° N 00:19:25 35° ENE 00:19:39 35° E
Iridium 2 4.4 00:16:20 10° NNW 00:19:52 45° W 00:19:52 45° W
Cosmos 158 Rocket 3.9 00:19:46 60° S 00:20:44 82° ESE 00:26:08 10° NNE
Cosmos 1821 Rocket 4.0 00:16:59 10° N 00:23:16 77° E 00:25:05 49° SSE
Cosmos 1420 Rocket 4.4 00:20:17 10° NNW 00:25:21 48° WSW 00:26:07 44° SW
Lacrosse 5 rocket 3.7 00:21:41 10° NW 00:25:36 26° NNE 00:29:30 10° ENE
Cosmos 1048 Rocket 4.0 00:30:12 55° SW 00:31:18 77° WNW 00:36:30 10° NNE
Cosmos 1833 Rocket 3.3 00:28:30 26° WSW 00:31:26 52° WNW 00:36:57 10° NNE
Terra 4.1 00:32:52 12° WSW 00:34:19 14° W 00:36:46 10° WNW
Lacrosse 5 4.1 00:38:59 12° E 00:38:59 12° E 00:39:49 10° E
Cosmos 1110 Rocket 4.1 00:31:51 10° NNW 00:37:08 69° ENE 00:38:06 55° ESE
Cosmos 1758 3.7 00:33:23 10° NNW 00:37:03 57° WNW 00:37:03 57° WNW
Cosmos 2098 Rocket 3.9 00:34:04 10° N 00:37:56 40° E 00:38:19 39° E
Cosmos 1331 Rocket 4.2 00:34:04 10° NNW 00:39:13 63° ENE 00:40:12 52° ESE
Cosmos 1733 3.6 00:37:01 10° N 00:40:20 60° NNE 00:40:20 60° NNE
Cosmos 1758 Rocket 3.4 00:42:07 86° NW 00:42:07 86° NW 00:46:26 10° N
Cosmos 1605 Rocket 4.1 00:39:38 10° N 00:45:41 62° ENE 00:47:20 46° SE
Cosmos 2251 Rocket 3.9 00:48:50 46° ESE 00:49:10 47° ESE 00:54:19 10° NNE
Cosmos 1535 Rocket 4.4 00:43:19 10° NNW 00:49:25 73° W 00:50:54 52° SSW
Cosmos 1470 3.0 00:47:58 10° N 00:51:33 71° NNW 00:51:33 71° NNW
ISS -1.9 00:52:42 22° WNW 00:54:02 31° NNW 00:57:02 10° NE
Cosmos 2360 Rocket 3.6 00:50:59 10° N 00:56:02 32° NE 00:59:32 17° ESE
Meteor 1-16 Rocket 4.4 00:50:54 10° N 00:56:11 58° ENE 00:57:19 48° ESE
Cosmos 1980 Rocket 2.7 00:51:55 10° NW 00:57:16 44° WSW 00:57:51 43° SW
Landsat 5 4.5 00:58:18 39° E 00:58:57 42° ENE 01:03:14 10° N
ALOS 2 3.0 01:00:22 52° W 01:00:22 52° W 01:04:33 10° NNW
Cosmos 2322 Rocket 2.2 00:59:33 10° NNW 01:05:17 81° ENE 01:06:37 55° SE
ARGOS Delta rocket 4.2 01:00:26 10° N 01:05:35 66° WNW 01:06:42 52° SW
Cosmos 1953 Rocket 4.2 01:07:55 45° W 01:08:16 46° WNW 01:12:36 10° N
USA 267 3.8 01:04:50 10° NE 01:11:13 58° NNW 01:17:35 10° WSW
Cosmos 1707 3.1 01:15:16 62° NNW 01:15:16 62° NNW 01:18:37 10° N
CZ-4C R/B 3.6 01:16:06 58° NNW 01:16:06 58° NNW 01:19:11 10° NNW
USA 32 3.9 01:16:51 66° SSW 01:17:36 82° W 01:22:53 10° N
Cosmos 1378 3.6 01:22:14 59° N 01:22:14 59° N 01:25:20 10° N
NOSS 3-1 (C) 4.0 01:14:15 10° NW 01:21:49 86° SW 01:25:53 34° SSE
CZ-2C R/B 3.9 01:22:49 36° WSW 01:23:27 37° W 01:28:37 10° NNW
Cosmos 972 4.5 01:17:57 10° NNW 01:23:41 88° ENE 01:24:36 63° SSE
SeaSat 1 4.0 01:29:44 23° W 01:29:44 23° W 01:33:09 10° NW
Cosmos 2082 Rocket 4.3 01:25:47 10° W 01:29:59 21° NW 01:34:12 10° N
Cosmos 1459 Rocket 4.4 01:26:54 10° N 01:33:11 59° ENE 01:35:36 37° SE
Meteor 2-1 Rocket 4.5 01:27:59 10° N 01:33:52 69° ENE 01:35:38 45° SE
Meteor 2-15 4.3 01:34:29 54° SSW 01:36:00 84° W 01:42:07 10° N
CZ-4B R/B 2.8 01:37:24 33° NNW 01:37:24 33° NNW 01:39:17 10° NNW
Helios 1B 4.5 01:37:27 76° W 01:37:27 76° W 01:41:45 10° NNW
Geosat 4.3 01:33:59 10° NNE 01:38:58 62° WNW 01:40:12 47° WSW
Cosmos 1689 Rocket 3.8 01:41:22 33° NNW 01:41:22 33° NNW 01:43:15 10° NNW
Cosmos 2219 Rocket 4.4 01:37:57 10° N 01:42:23 23° NE 01:46:47 10° E
Cosmos 2100 Rocket 4.0 01:36:36 10° N 01:42:46 73° E 01:44:47 44° SSE
CZ-2C R/B 3.9 01:37:51 10° N 01:42:50 34° WNW 01:44:58 25° WSW
Cosmos 2061 Rocket 4.2 01:39:49 10° N 01:46:00 66° E 01:48:19 39° SSE
USA 234 3.4 01:45:40 46° SSW 01:46:55 52° SW 01:53:18 10° WNW
Cosmos 2016 Rocket 4.5 01:42:43 10° N 01:48:59 56° ENE 01:51:51 32° SE
Meteor 2-5 Rocket 4.1 01:47:56 43° SW 01:49:33 57° WNW 01:55:26 10° N
ATLAS 2AS CENTAUR R/B 4.2 01:44:34 10° NNW 01:52:14 42° NE 01:59:27 10° ESE
NOSS 3-1 (A) 4.0 01:44:47 10° NW 01:52:21 76° SW 01:56:43 32° SSE
ATLAS CENTAUR R/B 2.3 01:49:32 10° NW 01:51:45 33° WNW 01:51:45 33° WNW
SL-16 R/B 2.6 01:48:24 10° NW 01:53:45 43° WSW 01:54:10 43° WSW
Cosmos 1340 Rocket 3.7 01:54:53 38° E 01:54:53 38° E 01:58:30 10° NNE
Meteor 2-15 Rocket 4.5 01:54:54 48° SW 01:56:36 70° W 02:02:42 10° N
H-2A R/B 2.3 01:56:06 10° NNE 02:00:18 89° WNW 02:00:29 82° SSW
Cosmos 1674 3.6 02:02:54 39° E 02:02:59 39° E 02:06:37 10° NNE
Lacrosse 5 rocket 1.6 02:00:48 10° NW 02:05:28 82° NE 02:06:52 45° ESE
Cosmos 2237 4.4 02:07:04 10° NNW 02:12:46 72° ENE 02:15:45 29° SE
Cosmos 2322 3.6 02:08:24 10° NNW 02:14:05 85° WSW 02:16:01 43° SSE
Cosmos 2123 Rocket 4.4 02:11:46 34° SSE 02:14:19 55° E 02:20:22 10° NNE
Cosmos 2221 2.4 02:14:03 10° NNW 02:18:19 69° W 02:18:30 67° WSW
Lacrosse 5 1.7 02:18:10 57° SW 02:19:12 82° SE 02:24:18 10° NE
Cosmos 1833 4.1 02:17:48 49° SSW 02:19:24 85° WNW 02:25:07 10° NNE
Helios 1A Rocket 3.0 02:18:59 10° NNE 02:23:08 65° ESE 02:23:38 58° SE
COSMOS 2428 3.0 02:20:24 10° NNW 02:26:09 69° ENE 02:30:03 21° SE
In-Cosmos 22 4.3 02:25:11 45° SW 02:26:35 61° WNW 02:32:01 10° N
Cosmos 2219 3.7 02:28:53 35° SSE 02:30:43 49° ESE 02:36:07 10° NE
ISS -1.6 02:28:17 10° NW 02:31:09 27° N 02:34:00 10° ENE
Cosmos 2228 Rocket 4.1 02:29:00 10° N 02:33:15 42° ENE 02:35:31 24° SE
Cosmos 2084 Rocket 3.1 02:33:07 73° SW 02:33:28 86° NW 02:37:24 10° NE
Cosmos 1726 3.1 02:30:50 10° N 02:34:28 43° ENE 02:35:31 34° ESE
Cosmos 2333 4.3 02:32:21 10° NNW 02:38:08 76° ENE 02:42:11 20° SSE
BREEZE-M DEB (TANK) 4.3 02:35:24 10° WNW 02:39:21 64° N 02:57:20 10° E
Cosmos 1190 Rocket 4.4 02:38:13 36° SSE 02:40:04 54° ESE 02:45:16 10° NNE
Cosmos 2360 Rocket 2.5 02:34:49 10° NW 02:40:12 45° WSW 02:41:16 41° SW
Cosmos 1725 Rocket 4.0 02:34:07 10° N 02:40:29 88° W 02:43:37 32° S
Cosmos 1992 Rocket 4.0 02:36:52 10° NNW 02:42:00 59° WSW 02:43:17 45° SSW
SL-08 R/B 4.5 02:41:57 10° NNW 02:47:59 66° W 02:50:31 36° SSW
Cosmos 1328 Rocket 3.9 02:43:53 10° N 02:48:20 64° E 02:50:14 32° SSE
Cosmos 2322 Rocket 4.0 02:45:19 10° WNW 02:48:24 16° W 02:48:24 16° W
Cosmos 1076 Rocket 3.7 02:47:54 48° WSW 02:48:37 54° WNW 02:52:53 10° N
Cosmos 1242 Rocket 2.4 02:45:58 10° N 02:49:30 80° ENE 02:49:55 67° SE
Cosmos 1908 3.7 02:45:49 10° NNW 02:49:34 44° W 02:49:36 44° W
PSLV R/B 3.9 02:51:32 54° SW 02:51:58 58° W 02:55:59 10° NNW
SL-08 R/B 3.5 02:52:20 28° SSE 02:54:57 79° ENE 02:59:56 10° N
PSLV R/B 4.4 02:55:22 10° N 02:59:18 37° WNW 03:00:18 32° W
Cosmos 2333 Rocket 2.7 02:53:57 10° NNW 02:59:40 62° ENE 03:05:16 10° SE
Cosmos 1356 Rocket 3.2 02:59:01 54° SSW 02:59:53 82° WNW 03:03:57 10° N
Meteor 2-10 4.2 02:55:22 10° N 03:00:25 66° ENE 03:04:00 20° SSE
Resurs 1-4 Rocket 3.3 02:57:05 10° NNE 03:01:58 36° E 03:05:35 16° SSE
CZ-2D R/B 3.2 03:01:06 10° NNE 03:05:56 37° E 03:09:32 17° SSE
AQUA 4.0 03:01:20 10° NNE 03:06:06 69° ESE 03:08:15 32° S
Cosmos 1151 Rocket 3.6 03:02:00 10° N 03:06:15 53° ENE 03:09:09 19° SSE
Cosmos 2151 3.8 03:06:51 24° SSE 03:08:58 44° E 03:12:59 10° NNE
SL-14 R/B 3.4 03:07:45 39° S 03:09:07 73° E 03:13:11 10° NNE
SL-16 R/B 2.8 03:07:31 10° SSE 03:13:38 71° ENE 03:19:48 10° N
ADEOS 4.4 03:12:29 10° NNE 03:17:28 44° E 03:21:15 17° SSE
Cosmos 1980 4.1 03:13:21 10° NNW 03:19:01 66° ENE 03:24:41 10° SE
UNK 4.0 03:16:33 15° SSE 03:20:17 68° ENE 03:24:53 10° N
Cosmos 2297 Rocket 3.5 03:17:08 15° SSE 03:21:07 33° ESE 03:26:06 10° NE
SL-8 R/B 4.0 03:21:51 33° SSW 03:23:34 49° SSE 03:28:11 10° ENE
IRS-1C 4.1 03:18:41 10° NNE 03:24:04 86° ESE 03:27:13 26° SSW
Cosmos 2219 Rocket 2.1 03:21:13 10° NNW 03:26:54 71° WSW 03:32:19 11° SSE
NOSS 0 Rocket 3.9 03:24:23 10° NNW 03:30:37 83° WSW 03:36:50 10° SSE
Cosmos 1500 Rocket 3.5 03:30:15 30° SSW 03:32:24 80° W 03:36:52 10° N
COBE Rocket 4.0 03:28:44 10° NNE 03:33:26 67° E 03:36:33 21° S
ERBS 3.1 03:34:06 31° S 03:35:02 39° SE 03:38:14 10° ENE
SL-16 R/B 3.7 03:31:18 10° NNW 03:36:39 39° NE 03:41:57 10° SE
Cosmos 2237 Rocket 2.2 03:33:26 10° NNW 03:39:07 86° ENE 03:44:45 10° SSE
Meteor 2-12 Rocket 4.5 03:33:18 10° NNW 03:39:25 67° W 03:44:17 16° S
Cosmos 1328 4.3 03:39:22 30° SW 03:40:52 45° WNW 03:44:43 10° N
Cosmos 1626 2.4 03:40:34 21° S 03:42:52 64° E 03:46:35 10° NNE
ATLAS 2AS CENTAUR R/B 3.0 03:35:48 10° NW 03:43:41 62° WSW 03:50:59 10° SSE
Aureole 2 Rocket 2.8 03:40:09 10° NNW 03:44:05 81° ENE 03:48:13 10° SSE
Cosmos 1140 Rocket 3.6 03:40:45 22° SSW 03:44:14 78° ESE 03:49:28 10° NNE
Lacrosse 5 rocket 3.5 03:41:11 10° W 03:42:28 14° W 03:42:28 14° W
NOSS 2-1 (D) 4.1 03:42:22 23° S 03:44:23 43° ESE 03:48:25 10° NE
NOSS 2-1 (C) 4.1 03:42:32 22° S 03:44:33 42° ESE 03:48:34 10° NE
GPS 2-04 Rocket1 4.1 03:45:14 22° S 03:45:32 22° S 03:48:49 10° SE
Cosmos 1515 Rocket 4.2 03:45:15 10° NNW 03:49:23 39° W 03:51:32 24° SW
Cosmos 1570 Rocket 4.4 03:44:43 10° NNW 03:50:05 67° ENE 03:55:24 10° SSE
Cosmos 1300 3.9 03:48:08 10° NNW 03:51:23 26° W 03:52:25 23° WSW
NOSS 3-3 (A) 4.0 03:48:07 21° SW 03:52:28 89° SE 03:59:14 10° NE
Cosmos 1743 Rocket 4.4 03:50:22 23° SW 03:52:32 37° WNW 03:56:41 10° N
NOSS 3-3 (C) 4.0 03:48:12 21° SW 03:52:34 88° SE 03:59:20 10° NE
Cosmos 614 Rocket 4.1 03:48:59 18° S 03:52:50 75° ESE 03:58:04 10° NNE
Cosmos 2034 Rocket 4.3 03:47:56 10° N 03:54:17 73° E 04:00:38 10° SSE
NPP 4.4 03:50:24 10° N 03:55:22 39° WNW 03:58:49 18° SW
Cosmos 2227 Rocket 2.2 03:53:34 18° SSW 03:57:51 81° ESE 04:03:32 10° NNE
ARIANE 5 R/B 2.5 03:54:33 10° NNE 03:59:42 79° WNW 04:03:43 16° SSW
ADEOS Rocket 3.6 03:53:24 10° N 04:00:37 72° WNW 04:07:20 14° SSW
Lacrosse 5 3.4 03:58:09 10° W 04:02:39 31° NNW 04:07:10 10° NE
Cosmos 1954 Rocket 4.2 04:00:23 19° SW 04:04:05 59° WNW 04:09:19 10° NNE
NOSS 2-1 (E) 3.5 04:04:37 19° SSW 04:07:14 66° ESE 04:11:36 10° NE
ISS -3.5 04:04:46 10° WNW 04:08:03 67° NNE 04:11:18 10° ESE
Tsikada Rocket 4.5 04:02:40 10° S 04:08:55 63° E 04:15:15 10° NNE
Cosmos 1726 4.2 04:07:30 10° NW 04:09:22 13° W 04:10:06 13° W
COSMOS 2428 4.1 04:05:53 10° NW 04:09:49 19° W 04:12:00 16° SW
USA 161 1.7 04:12:52 10° SSE 04:14:52 44° ENE 04:16:48 10° N
Cosmos 2219 4.4 04:10:48 12° WSW 04:15:06 29° NW 04:20:00 10° N
Cosmos 1633 Rocket 3.8 04:12:56 10° S 04:17:11 52° E 04:21:26 10° NNE
Cosmos 1869 3.6 04:13:14 10° N 04:17:17 69° E 04:21:17 10° SSE
Cosmos 2058 3.6 04:14:39 17° SW 04:17:19 37° WNW 04:21:10 10° N
Sich 1 3.2 04:20:12 10° S 04:24:36 75° E 04:28:59 10° NNE
Cosmos 2082 3.7 04:20:13 13° SSW 04:25:10 74° WNW 04:30:49 10° NNE
Cosmos 2242 Rocket 4.2 04:26:56 10° N 04:31:22 60° E 04:35:48 10° SSE
Cosmos 2208 Rocket 4.1 04:28:11 10° NNW 04:33:17 59° WSW 04:38:24 10° S
Cosmos 1455 2.9 04:31:50 10° NNW 04:35:24 36° W 04:38:58 10° SSW
CZ-2D R/B 3.5 04:34:03 10° N 04:38:01 63° WNW 04:42:02 10° SSW
Cosmos 1703 4.5 04:35:50 12° SW 04:38:48 27° WNW 04:42:11 10° NNW
Resurs 1-4 Rocket 3.0 04:37:01 10° N 04:41:44 34° WNW 04:46:27 10° SW
Lacrosse 4 Rocket 2.8 04:38:10 10° S 04:41:52 33° ESE 04:45:40 10° NE
MOZ.5/SAFIR/RUBIN 5/SL-8 4.2 04:38:39 10° S 04:43:10 44° W 04:47:44 10° NNW
Cosmos 2333 Rocket 3.4 04:39:11 10° NW 04:43:24 22° W 04:47:35 10° SSW
Cosmos 1900 4.4 04:40:38 10° SW 04:45:33 84° WNW 04:50:37 10° NNE
CZ-2D R/B 3.1 04:41:22 10° N 04:45:55 31° WNW 04:50:27 10° SW
Cosmos 1707 Rocket 4.0 04:45:43 10° NNW 04:49:49 41° W 04:53:56 10° SSW
UNKNOWN OBJECT B 3.7 04:48:36 10° N 04:52:20 36° WNW 04:56:01 10° SW
Landsat 4 3.7 04:49:28 10° S 04:53:15 79° WSW 04:57:05 10° NNW
ADEOS II 2.6 04:52:30 10° NNE 04:57:45 64° ESE 05:02:57 10° S
SL-16 R/B 3.8 04:53:27 10° SW 04:57:50 20° W 05:02:15 10° NW
MOS 1 Rocket 3.9 04:53:23 10° N 04:58:11 50° WNW 05:03:15 10° SW
Cosmos 468 Rocket 4.0 04:53:22 10° NNW 04:58:36 75° WSW 05:03:43 10° SSE
Cosmos 1603 4.4 04:53:23 10° NNW 04:59:05 61° ENE 05:04:42 10° SE
MOS 1-B 4.4 04:55:15 10° NNE 05:01:02 76° WNW 05:06:48 10° SSW
